Weather History for Kaltag, AK

Change the Weather History Date:

Friday, October 5, 2012

  Actual Average (PAGA) Record (PAGA)
Temperature  
Mean Temperature 39 °F -  
Max Temperature 48 °F 35 °F 52 °F (1952)
Min Temperature 30 °F 25 °F 0 °F (1956)
Degree Days  
Heating Degree Days 26    
Moisture  
Dew Point 34 °F    
Average Humidity 76    
Maximum Humidity 100    
Minimum Humidity 56    
Precipitation  
Precipitation 0.00 in - - ()
Sea Level Pressure  
Sea Level Pressure 29.89 in    
Wind  
Wind Speed 2 mph (SSW)    
Max Wind Speed 7 mph    
Max Gust Speed -    
Visibility 9 miles    
Events Rain , Snow    
Averages and records for this station are not official NWS values.
T = Trace of Precipitation, MM = Missing Value Source: NWS Daily Summary

Daily Weather History Graph

Daily Weather History Graph

Search for Another Location

Airport:

Trip Planner

Search our weather history database for the weather conditions in past years. The results will help you decide how hot, cold, wet, or windy it might be!

Date:

Astronomy

Oct. 05, 2012 Rise Set
Actual Time 8:57 AM AKDT 7:46 PM AKDT
Civil Twilight 8:09 AM AKDT 8:34 PM AKDT
Nautical Twilight 7:13 AM AKDT 9:30 PM AKDT
Astronomical Twilight 6:14 AM AKDT 10:29 PM AKDT
Moon 9:23 PM AKDT (10/5) 4:12 PM AKDT (10/5)
Length of Visible Light 12h 24m
Length of Day
10h 48m
Waning Gibbous, 73% of the Moon is Illuminated
Oct 5
Waning Gibbous
Oct 7
Last Quarter
Oct 15
New
Oct 21
First Quarter
Oct 29
Full

Hourly Weather History & Observations

Time (AKDT) Temp. Windchill Dew Point Humidity Pressure Visibility Wind Dir Wind Speed Gust Speed Precip Events Conditions
12:31 AM 39.2 °F - 39.2 °F 100% 29.86 in 3.0 mi Calm Calm - N/A   Mostly Cloudy
12:53 AM 37.9 °F - 37.9 °F 100% 29.87 in 10.0 mi Calm Calm - N/A   Mostly Cloudy
1:53 AM 39.0 °F - 37.9 °F 96% 29.88 in 10.0 mi Calm Calm - 0.00 in   Scattered Clouds
2:40 AM 35.6 °F - 33.8 °F 93% 29.89 in 7.0 mi Calm Calm - 0.00 in   Partly Cloudy
2:53 AM 33.1 °F - 32.0 °F 96% 29.90 in 10.0 mi Calm Calm - 0.00 in Rain Light Rain
3:53 AM 30.9 °F - 30.9 °F 100% 29.90 in 10.0 mi Calm Calm - 0.00 in   Partly Cloudy
4:18 AM 32.0 °F - 32.0 °F 100% 29.89 in 3.0 mi Calm Calm - 0.00 in   Scattered Clouds
4:53 AM 36.0 °F 33.3 °F 35.1 °F 97% 29.91 in 9.0 mi Variable 3.5 mph - 0.00 in Snow Light Snow
5:53 AM 36.0 °F - 35.1 °F 97% 29.91 in 10.0 mi Calm Calm - 0.00 in   Clear
6:53 AM 39.9 °F 37.8 °F 36.0 °F 86% 29.90 in 10.0 mi Variable 3.5 mph - N/A   Clear
7:53 AM 41.0 °F 38.0 °F 36.0 °F 82% 29.90 in 10.0 mi Variable 4.6 mph - N/A   Partly Cloudy
8:53 AM 42.1 °F 38.4 °F 35.1 °F 76% 29.91 in 10.0 mi Variable 5.8 mph - N/A   Mostly Cloudy
9:53 AM 43.0 °F 39.5 °F 35.1 °F 74% 29.91 in 10.0 mi South 5.8 mph - N/A   Overcast
10:53 AM 43.0 °F 39.5 °F 35.1 °F 74% 29.91 in 10.0 mi Variable 5.8 mph - N/A   Overcast
11:53 AM 45.0 °F 43.5 °F 35.1 °F 68% 29.91 in 10.0 mi Variable 3.5 mph - N/A   Scattered Clouds
12:53 PM 46.9 °F - 34.0 °F 61% 29.91 in 10.0 mi Calm Calm - N/A   Overcast
1:53 PM 46.9 °F - 33.1 °F 59% 29.91 in 10.0 mi Variable 6.9 mph - N/A   Overcast
2:53 PM 46.9 °F - 33.1 °F 59% 29.91 in 10.0 mi Variable 4.6 mph - N/A   Overcast
3:53 PM 46.9 °F - 33.1 °F 59% 29.90 in 10.0 mi Variable 5.8 mph - N/A   Overcast
4:53 PM 46.9 °F - 33.1 °F 59% 29.89 in 10.0 mi SSW 3.5 mph - N/A   Overcast
5:53 PM 48.0 °F - 33.1 °F 56% 29.88 in 10.0 mi Variable 5.8 mph - N/A   Overcast
6:53 PM 46.9 °F - 33.1 °F 59% 29.88 in 10.0 mi Calm Calm - N/A   Overcast
7:53 PM 46.9 °F - 33.1 °F 59% 29.88 in 10.0 mi Variable 4.6 mph - N/A   Overcast
8:53 PM 46.0 °F 44.8 °F 34.0 °F 63% 29.88 in 10.0 mi Variable 3.5 mph - N/A   Overcast
9:53 PM 46.0 °F 43.1 °F 32.0 °F 58% 29.88 in 10.0 mi Variable 5.8 mph - N/A   Overcast
10:53 PM 45.0 °F 41.8 °F 32.0 °F 60% 29.88 in 10.0 mi Variable 5.8 mph - N/A   Overcast
11:53 PM 44.1 °F - 32.0 °F 63% 29.88 in 10.0 mi Calm Calm - N/A   Overcast